Regional Weather Roundup
Issued by NWS

Home | Current Version | Previous Version | Text Only | Print | Product List | Glossary On
Versions: 1 2 3 4 5 6 7 8 9 10 11 12 13 14 15 16 17 18 19 20 21 22 23 24 25 26 27 28 29 30 31 32 33 34 35 36 37 38 39 40 41 42 43 44 45 46 47 48 49 50
000
ASUS43 KLMK 311410
RWRKY
KENTUCKY REGIONAL WEATHER ROUNDUP
NATIONAL WEATHER SERVICE LOUISVILLE KY
900 AM EST SAT JAN 31 2015

NOTE "FAIR" INDICATES FEW OR NO CLOUDS BELOW 12,000 FEET
WITH NO SIGNIFICANT WEATHER AND/OR OBSTRUCTIONS TO VISIBILITY.

KYZ001>023-026-027-061>063-070>075-311500-
WESTERN AND SOUTH CENTRAL KENTUCKY

CITY           SKY/WX    TMP DP  RH WIND       PRES   REMARKS
PADUCAH        CLOUDY    31  23  72 SW3       30.39R
HENDERSON      PTSUNNY   27  21  80 CALM      30.38F
OWENSBORO      MOSUNNY   27  23  84 CALM      30.40R
HOPKINSVILLE   PTSUNNY   28  23  80 E5        30.37F WCI  23
BOWLING GREEN  PTSUNNY   25  21  85 CALM      30.40S
GLASGOW        PTSUNNY   24  22  91 CALM      30.39R
$$

KYZ024-025-028>034-038-045-046-053-311500-
NORTH CENTRAL KENTUCKY

CITY           SKY/WX    TMP DP  RH WIND       PRES   REMARKS
LOUISVILLE/SDF CLOUDY    24  18  77 CALM      30.40R
LOUISVILLE/LOU MOSUNNY   25  17  72 CALM      30.41R
FORT KNOX      PTSUNNY   24  18  77 CALM      30.37R
$$

KYZ035>037-039>044-047>052-055>060-089>105-311500-
NORTHEAST KENTUCKY

CITY           SKY/WX    TMP DP  RH WIND       PRES   REMARKS
LEXINGTON      MOSUNNY   22  16  78 SE6       30.38S WCI  14
COVINGTON      MOSUNNY   22  15  75 S7        30.37S WCI  13
FRANKFORT      MOSUNNY   20  16  84 CALM      30.38R
$$

KYZ054-064>069-076>088-106>120-311500-
SOUTHEAST KENTUCKY

CITY           SKY/WX    TMP DP  RH WIND       PRES   REMARKS
JACKSON        MOSUNNY   22  15  75 CALM      30.37R
LONDON         MOSUNNY   23  15  71 CALM      30.38R
SOMERSET       MOSUNNY   21  18  86 CALM      30.41S
MIDDLESBORO    SUNNY     21  19  93 CALM      30.41R
MONTICELLO     MOSUNNY   25  20  81 CALM      30.42S
$$




USA.gov is the U.S. government's official web portal to all federal, state and local government web resources and services.